{"data":{"norad_id":58318,"intl_designator":"2023-174BQ","name":"FLOCK 4Q-7","alt_names":[],"object_type":"PAYLOAD","status":"ACTIVE","operator":null,"country":"US","launch_date":"2023-11-11","launch_site_code":"AFWTR","launch_vehicle":null,"mission":null,"orbit_class":"UNKNOWN","rcs_meters":null,"size_class":null,"mass_kg":null,"dimensions":null,"purposes":["earth_obs"],"wikipedia_slug":null,"has_3d_model":false,"image_url":null,"decayed_at":null,"tle_current":{"epoch":"2026-08-26T05:24:24.064992Z","epoch_age_seconds":2198279,"freshness":"OLD","line1":"1 58318U 23174BQ  26238.22527853  .00029268  00000+0  36702-3 0  9994","line2":"2 58318  97.3945 332.3195 0005168 244.5717 115.5005 15.59694907156655","mean_motion":15.59694907,"eccentricity":0.0005168,"inclination_deg":97.3945,"raan_deg":332.3195,"arg_perigee_deg":244.5717,"mean_anomaly_deg":115.5005,"bstar":0.00036702,"rev_number":15665,"period_min":92.325748679258,"perigee_km":385.0423414325,"apogee_km":392.03637811796,"semimajor_km":6766.6763597752,"source":"CELESTRAK","updated_at":"2026-08-27T09:00:33.997281Z"}}}